Content
SEND FEEDBACK

Daily
Averages
Monthly
Summary
United Kingdom

NEWTOWNNARDS, NORTHERN IRELAND


Home > Europe > United Kingdom > Northern Ireland
Elevation: 112 feet     Latitude: 54 40N     Longitude: 005 35W

WEATHER
 
SELECT A DAY
Number of Records: 191,351;   Date Range: 7/1/96 - 8/30/14
 
SHARE

PRINT THIS DATA

[ ← Previous Day ]
WEATHER ALMANAC - AUGUST 1, 2013
[ Next Day → ]
[ °C ]   °F
Weather ElementAverageHighLow
Temperature64.2 °F66.2 °F (1:20 pm)62.6 °F (6:50 am)
Dewpoint61 °F62.6 °F (8:20 am)59 °F (7:50 pm)
Humidity89.5 %94 % (6:50 am)83 % (3:20 pm)
Barometer29.60 in29.62 in (6:50 am)29.53 in (8:50 pm)
Wind Speed13.7 mph18.4 mph (4:20 pm)
Weather ElementAverage
Visibility6.1 mi
Wind DirectionSSE (159 °)

Weather ElementTotal
Precipitation---
Heating Degree Days0.6 (Base 65)
Growing Degree Days14.4 (Base 50)
Averaged from 31 records on August 1, 2013
WEATHER CONDITIONS BREAKOUT
WIND DIRECTION BREAKOUT
WEATHER BY HOUR - AUGUST 1, 2013
[ °C ]   °F
Local TimeTemperatureDewpointHumidityBarometerVisibilityWind DirectionWind SpeedGust SpeedPrecipitationEventsConditions
6:50 AM62.6 °F60.8 °F94 %29.62 in5.0 miSSE (160°)12.7 mphRainLight Rain
7:20 AM62.6 °F60.8 °F94 %29.62 in6.2 miSSE (160°)10.4 mphMostly Cloudy
7:50 AM62.6 °F60.8 °F94 %29.62 in6.2 miSSE (150°)11.5 mphMostly Cloudy
8:20 AM64.4 °F62.6 °F94 %29.62 in6.2 miSSE (160°)12.7 mphMostly Cloudy
8:50 AM64.4 °F62.6 °F94 %29.62 in6.2 miSSE (160°)11.5 mphMostly Cloudy
9:20 AM64.4 °F62.6 °F94 %29.62 in6.2 miSSE (150°)11.5 mphMostly Cloudy
9:50 AM64.4 °F60.8 °F88 %29.62 in6.2 miSSE (160°)11.5 mphRainLight Rain
10:20 AM62.6 °F60.8 °F94 %29.62 in6.2 miSSE (160°)11.5 mphRainLight Rain
10:50 AM62.6 °F60.8 °F94 %29.62 in5.6 miSSE (160°)11.5 mphRainRain
11:20 AM64.4 °F62.6 °F94 %29.62 in5.6 miSSE (160°)12.7 mphRainRain
11:50 AM64.4 °F62.6 °F94 %29.62 in6.2 miSSE (160°)12.7 mphRainRain
12:20 PM64.4 °F62.6 °F94 %29.62 in6.2 miSSE (160°)12.7 mphRainRain
12:50 PM64.4 °F62.6 °F94 %29.62 in6.2 miSouth (170°)11.5 mphRainRain
1:20 PM66.2 °F62.6 °F88 %29.62 in6.2 miSSE (160°)16.1 mphRainRain
1:50 PM64.4 °F60.8 °F88 %29.62 in6.2 miSSE (160°)15.0 mphMostly Cloudy
2:20 PM64.4 °F60.8 °F88 %29.59 in6.2 miSouth (170°)10.4 mphMostly Cloudy
2:50 PM64.4 °F60.8 °F88 %29.62 in6.2 miSouth (170°)10.4 mphMostly Cloudy
3:20 PM66.2 °F60.8 °F83 %29.59 in6.2 miSSE (160°)15.0 mphMostly Cloudy
3:50 PM66.2 °F60.8 °F83 %29.59 in6.2 miSSE (160°)16.1 mphMostly Cloudy
4:20 PM66.2 °F60.8 °F83 %29.59 in6.2 miSSE (160°)18.4 mphMostly Cloudy
4:50 PM64.4 °F60.8 °F88 %29.59 in6.2 miSouth (170°)16.1 mphMostly Cloudy
5:20 PM64.4 °F60.8 °F88 %29.59 in6.2 miSSE (160°)16.1 mphMostly Cloudy
5:50 PM64.4 °F60.8 °F88 %29.59 in6.2 miSSE (160°)15.0 mphMostly Cloudy
6:20 PM66.2 °F60.8 °F83 %29.56 in6.2 miSE (140°)15.0 mphMostly Cloudy
6:50 PM64.4 °F60.8 °F88 %29.56 in6.2 miSSE (160°)13.8 mphMostly Cloudy
7:20 PM64.4 °F60.8 °F88 %29.56 in6.2 miSSE (150°)17.3 mphPartly Cloudy
7:50 PM64.4 °F59.0 °F83 %29.56 in6.2 miSSE (150°)16.1 mphPartly Cloudy
8:20 PM64.4 °F60.8 °F88 %29.56 in6.2 miSSE (150°)12.7 mphPartly Cloudy
8:50 PM62.6 °F59.0 °F88 %29.53 in6.2 miSSE (150°)16.1 mphPartly Cloudy
9:20 PM62.6 °F59.0 °F88 %29.56 in6.2 miSSE (160°)18.4 mphScattered Clouds
9:50 PM62.6 °F59.0 °F88 %29.56 in6.2 miSouth (170°)13.8 mphMostly Cloudy
Hourly data recorded from EGAC, located miles away from Newtownnards, Northern Ireland







STORIES FROM OUR PARTNERS